Location: Gollag?dem
(16.8053°N, 80.8024°E)
Time: 09:53:42
(UTC+00:00)

ARIANE 5 R/B - Pass Details

Date: 13 August 2020
Orbit: 229 x 31114 km, 5.9° (Epoch: 18 September)

Event Time Altitude Azimuth Distance (km) Brightness Sun altitude
Rises 05:57:02 0° 263° (W) 16,340 9.1 79.0°
Reaches altitude 10° 06:15:29 10° 260° (W) 19,165 9.7 83.3°
Drops below altitude 10° 10:19:49 10° 258° (WSW) 35,221 12.1 37.6°
Maximum altitude 13:56:06 30° 200° (SSW) 2,809 5.4 -13.0°
Enters shadow 14:00:41 14° 143° (SE) 2,329 4.5 -14.0°
